Regional Weather Roundup
Issued by NWS

Home | Current Version | Previous Version | Graphics & Text | Print | Product List | Glossary On
Versions: 1 2 3 4 5 6 7 8 9 10 11 12 13 14 15 16 17 18 19 20 21 22 23 24 25 26 27 28 29 30 31 32 33 34 35 36 37 38 39 40 41 42 43 44 45 46 47 48 49 50
020
ASUS44 KLIX 302110
RWRLA
LOUISIANA WEATHER ROUNDUP
NATIONAL WEATHER SERVICE NEW ORLEANS LA
300 PM CST FRI JAN 30 2015

NOTE: "FAIR" INDICATES FEW OR NO CLOUDS BELOW 12,000 FEET WITH NO
      SIGNIFICANT WEATHER AND/OR OBSTRUCTIONS TO VISIBILITY.
      SKY/WX - SKY CONDITION AND SIGNIFICANT WEATHER.
      TMP - AIR TEMPERATURE.    DP   - DEWPOINT TEMPERATURE.
      RH  - RELATIVE HUMIDITY.  PRES - PRESSURE.
      HX  - HEAT INDEX.         WCI  - WIND CHILL INDEX.

*  THESE STATIONS ARE NOT NWS OR FAA STATIONS AND ARE NOT UNDER
   NWS QUALITY CONTROL.

LAZ040-048-061>063-065-066-069-302200-
SOUTHEAST LOUISIANA

CITY           SKY/WX    TMP DP  RH WIND       PRES   REMARKS
N.O. AUDUBON     N/A     59 N/A N/A MISG        N/A
N.O. INTL ARPT PTSUNNY   58  35  42 N8        30.33F
N.O. LAKEFRONT MOSUNNY   58  38  47 NW6       30.33F
N.O. DOWNTOWN* NOT AVBL
SLIDELL        MOSUNNY   60  31  33 N9        30.31F
BATON ROUGE    MOSUNNY   62  29  28 NE6       30.33S
BOOTHVILLE     CLOUDY    53  40  61 N8        30.32S
BELLE CHASSE   PTSUNNY   59  33  37 N6        30.31F
BOGALUSA*        N/A     61  30  31 NE3       30.34F
GALLIANO*      MOCLDY    60  40  48 MISG      30.32S
NEW ROADS*     FAIR      59  30  33 NE9       30.34F
GONZALES*      FAIR      62  32  32 N7        30.32F
HAMMOND*       MOSUNNY   61  28  29 N6        30.34S
HOUMA*         SUNNY     61  36  39 N12       30.32
PORT FOURCHON* CLEAR     57  41  54 NE15      30.34F

$$

LAZ041-044-053-054-302200-
SOUTHWEST LOUISIANA

CITY           SKY/WX    TMP DP  RH WIND       PRES   REMARKS
LAKE CHARLES   MOSUNNY   61  34  36 NE13      30.33F
LAFAYETTE      MOSUNNY   60  34  37 NE9       30.33F
PATTERSON      SUNNY     59  36  41 NE13      30.33S
SALT POINT       N/A     61  36  39 VRB6      30.30F
NEW IBERIA     SUNNY     61  33  35 NE9       30.33F
CHENAULT AIRPK SUNNY     61  34  36 NE7       30.33F

$$

LAZ027-028-302200-
CENTRAL LOUISIANA

CITY           SKY/WX    TMP DP  RH WIND       PRES   REMARKS
FORT POLK      PTSUNNY   57  31  38 NE8       30.34F
ALEXANDRIA INT PTSUNNY   59  29  31 NE8       30.35F
ALEXANDRIA     PTSUNNY   57  31  37 VRB7      30.37S

$$

LAZ001-002-302200-
NORTHWEST LOUISIANA

CITY           SKY/WX    TMP DP  RH WIND       PRES   REMARKS
SHREVEPORT     PTSUNNY   58  29  33 VRB5      30.38F
BARKSDALE AFB  MOSUNNY   57  28  33 NE8       30.38F
DTN SHREVEPORT MOSUNNY   56  26  31 E6        30.38F

$$

LAZ014-016-302200-
NORTHEAST LOUISIANA

CITY           SKY/WX    TMP DP  RH WIND       PRES   REMARKS
MONROE         SUNNY     54  32  43 NE13      30.41F
TALLULAH       MOSUNNY   56  32  40 N8        30.38F

$$




USA.gov is the U.S. government's official web portal to all federal, state and local government web resources and services.